Stündliche Wetter Kyslivka

Heute, 11 Mai, Dienstag

Zeit Temperatur Niederschläge Wind Luftdruck Luftfeuchtigkeit
00:00 +7°C° 0.1 mm 9 m/S 742 mmHg 92%
01:00 +7°C° 0.2 mm 8 m/S 743 mmHg 93%
02:00 +8°C° 0.2 mm 7 m/S 743 mmHg 93%
03:00 +8°C° 0 mm 6 m/S 742 mmHg 94%
04:00 +8°C° 0.7 mm 6 m/S 742 mmHg 94%
05:00 +8°C° 0.7 mm 6 m/S 742 mmHg 94%
06:00 +8°C° 0.7 mm 6 m/S 742 mmHg 94%
07:00 +8°C° 0.2 mm 6 m/S 743 mmHg 93%
08:00 +7°C° 0.2 mm 5 m/S 743 mmHg 91%
09:00 +7°C° 0 mm 5 m/S 744 mmHg 90%
10:00 +8°C° 0 mm 6 m/S 744 mmHg 82%
11:00 +8°C° 0 mm 7 m/S 745 mmHg 74%
12:00 +9°C° 0 mm 8 m/S 745 mmHg 65%
13:00 +9°C° 0.1 mm 8 m/S 745 mmHg 68%
14:00 +9°C° 0.1 mm 8 m/S 745 mmHg 70%
15:00 +8°C° 0.1 mm 9 m/S 746 mmHg 72%
16:00 +7°C° 0.1 mm 9 m/S 746 mmHg 75%
17:00 +7°C° 0.1 mm 9 m/S 745 mmHg 77%
18:00 +6°C° 0.1 mm 9 m/S 745 mmHg 79%
19:00 +6°C° 0.1 mm 9 m/S 745 mmHg 82%
20:00 +5°C° 0.1 mm 8 m/S 745 mmHg 86%
21:00 +5°C° 0.1 mm 8 m/S 745 mmHg 89%
22:00 +5°C° 0.1 mm 8 m/S 746 mmHg 89%
23:00 +5°C° 0.1 mm 8 m/S 746 mmHg 88%

Morgen, 12 Mai, Mittwoch

Zeit Temperatur Niederschläge Wind Luftdruck Luftfeuchtigkeit
00:00 +5°C° 0.1 mm 8 m/S 746 mmHg 88%
01:00 +5°C° 0.2 mm 8 m/S 747 mmHg 88%
02:00 +5°C° 0.2 mm 8 m/S 747 mmHg 89%
03:00 +5°C° 0.2 mm 7 m/S 747 mmHg 89%
04:00 +5°C° 0.6 mm 7 m/S 747 mmHg 90%
05:00 +5°C° 0.6 mm 7 m/S 747 mmHg 90%
06:00 +5°C° 0.6 mm 6 m/S 747 mmHg 91%
07:00 +7°C° 0.4 mm 6 m/S 747 mmHg 90%
08:00 +7°C° 0.4 mm 6 m/S 747 mmHg 90%
09:00 +7°C° 0.4 mm 6 m/S 747 mmHg 89%
10:00 +8°C° 0.5 mm 6 m/S 747 mmHg 88%
11:00 +8°C° 0.5 mm 6 m/S 747 mmHg 87%
12:00 +8°C° 0.5 mm 5 m/S 746 mmHg 85%
13:00 +9°C° 0.3 mm 6 m/S 746 mmHg 79%
14:00 +11°C° 0.3 mm 6 m/S 746 mmHg 73%
15:00 +12°C° 0.3 mm 7 m/S 746 mmHg 67%
16:00 +12°C° 0.2 mm 7 m/S 745 mmHg 69%
17:00 +13°C° 0.2 mm 6 m/S 745 mmHg 70%
18:00 +13°C° 0.2 mm 6 m/S 745 mmHg 72%
19:00 +12°C° 0.4 mm 5 m/S 745 mmHg 78%
20:00 +9°C° 0.4 mm 5 m/S 746 mmHg 84%
21:00 +8°C° 0.4 mm 4 m/S 746 mmHg 90%
22:00 +8°C° 0.1 mm 4 m/S 746 mmHg 91%
23:00 +9°C° 0.1 mm 3 m/S 745 mmHg 92%

übermorgen, 13 Mai, Donnerstag

Zeit Temperatur Niederschläge Wind Luftdruck Luftfeuchtigkeit
00:00 +9°C° 0.1 mm 3 m/S 745 mmHg 93%
01:00 +9°C° 0 mm 2 m/S 745 mmHg 92%
02:00 +9°C° 0 mm 2 m/S 745 mmHg 92%
03:00 +10°C° 0 mm 1 m/S 745 mmHg 92%
04:00 +9°C° 0.1 mm 2 m/S 745 mmHg 92%
05:00 +10°C° 0.1 mm 2 m/S 745 mmHg 92%
06:00 +10°C° 0.1 mm 2 m/S 745 mmHg 92%
07:00 +12°C° 0 mm 2 m/S 745 mmHg 86%
08:00 +14°C° 0 mm 2 m/S 745 mmHg 80%
09:00 +16°C° 0 mm 3 m/S 745 mmHg 75%
10:00 +17°C° 0.1 mm 3 m/S 745 mmHg 70%
11:00 +19°C° 0.1 mm 4 m/S 745 mmHg 65%
12:00 +20°C° 0.1 mm 4 m/S 745 mmHg 60%
13:00 +20°C° 0.1 mm 3 m/S 745 mmHg 60%
14:00 +20°C° 0.1 mm 3 m/S 745 mmHg 59%
15:00 +21°C° 0.1 mm 2 m/S 745 mmHg 58%
16:00 +21°C° 0 mm 2 m/S 745 mmHg 60%
17:00 +21°C° 0 mm 2 m/S 745 mmHg 62%
18:00 +22°C° 0 mm 1 m/S 745 mmHg 64%
19:00 +19°C° 0 mm 2 m/S 745 mmHg 68%
20:00 +18°C° 0 mm 2 m/S 745 mmHg 71%
21:00 +17°C° 0 mm 3 m/S 745 mmHg 75%
22:00 +17°C° 0 mm 3 m/S 745 mmHg 77%
23:00 +16°C° 0 mm 3 m/S 745 mmHg 79%

14 Mai, Freitag

Zeit Temperatur Niederschläge Wind Luftdruck Luftfeuchtigkeit
00:00 +16°C° 0 mm 3 m/S 744 mmHg 81%
01:00 +14°C° 0 mm 3 m/S 744 mmHg 84%
02:00 +14°C° 0 mm 3 m/S 744 mmHg 86%
03:00 +13°C° 0 mm 3 m/S 744 mmHg 89%
04:00 +14°C° 0 mm 3 m/S 744 mmHg 89%
05:00 +14°C° 0 mm 3 m/S 744 mmHg 89%
06:00 +14°C° 0 mm 4 m/S 744 mmHg 90%
07:00 +17°C° 0 mm 4 m/S 744 mmHg 83%
08:00 +19°C° 0 mm 5 m/S 744 mmHg 76%
09:00 +21°C° 0 mm 6 m/S 744 mmHg 69%
10:00 +23°C° 0 mm 6 m/S 744 mmHg 64%
11:00 +24°C° 0 mm 6 m/S 743 mmHg 60%
12:00 +26°C° 0 mm 6 m/S 743 mmHg 55%
13:00 +27°C° 0 mm 6 m/S 743 mmHg 54%
14:00 +27°C° 0 mm 6 m/S 743 mmHg 52%
15:00 +28°C° 0 mm 6 m/S 742 mmHg 51%
16:00 +27°C° 0 mm 5 m/S 742 mmHg 56%
17:00 +27°C° 0 mm 4 m/S 742 mmHg 60%
18:00 +26°C° 0 mm 3 m/S 742 mmHg 65%
19:00 +25°C° 0 mm 3 m/S 742 mmHg 70%
20:00 +22°C° 0 mm 3 m/S 742 mmHg 76%
21:00 +20°C° 0 mm 4 m/S 741 mmHg 82%
22:00 +19°C° 0 mm 3 m/S 741 mmHg 85%
23:00 +19°C° 0 mm 3 m/S 741 mmHg 87%

15 Mai, Samstag

Zeit Temperatur Niederschläge Wind Luftdruck Luftfeuchtigkeit
00:00 +18°C° 0 mm 3 m/S 741 mmHg 89%
01:00 +18°C° 0 mm 3 m/S 741 mmHg 90%
02:00 +17°C° 0 mm 3 m/S 741 mmHg 90%
03:00 +17°C° 0 mm 2 m/S 741 mmHg 91%
04:00 +17°C° 0 mm 2 m/S 742 mmHg 90%
05:00 +17°C° 0 mm 2 m/S 742 mmHg 88%
06:00 +17°C° 0 mm 2 m/S 742 mmHg 87%
07:00 +18°C° 0 mm 2 m/S 742 mmHg 80%
08:00 +20°C° 0 mm 2 m/S 743 mmHg 73%
09:00 +23°C° 0 mm 2 m/S 743 mmHg 65%
10:00 +22°C° 0 mm 3 m/S 743 mmHg 61%
11:00 +23°C° 0 mm 4 m/S 743 mmHg 57%
12:00 +25°C° 0 mm 4 m/S 744 mmHg 53%
13:00 +25°C° 0 mm 4 m/S 744 mmHg 51%
14:00 +26°C° 0 mm 4 m/S 743 mmHg 49%
15:00 +26°C° 0 mm 4 m/S 743 mmHg 48%
16:00 +25°C° 0 mm 4 m/S 743 mmHg 51%
17:00 +25°C° 0 mm 3 m/S 743 mmHg 55%
18:00 +24°C° 0 mm 3 m/S 743 mmHg 58%
19:00 +23°C° 0 mm 2 m/S 744 mmHg 61%
20:00 +20°C° 0 mm 2 m/S 744 mmHg 64%
21:00 +19°C° 0 mm 1 m/S 744 mmHg 67%
22:00 +19°C° 0 mm 1 m/S 744 mmHg 67%
23:00 +19°C° 0 mm 1 m/S 743 mmHg 67%

16 Mai, Sonntag

Zeit Temperatur Niederschläge Wind Luftdruck Luftfeuchtigkeit
00:00 +18°C° 0 mm 1 m/S 743 mmHg 68%
01:00 +18°C° 0 mm 1 m/S 743 mmHg 70%
02:00 +16°C° 0 mm 1 m/S 744 mmHg 72%
03:00 +15°C° 0 mm 1 m/S 744 mmHg 74%
04:00 +16°C° 0 mm 1 m/S 744 mmHg 75%
05:00 +16°C° 0 mm 1 m/S 744 mmHg 76%
06:00 +16°C° 0 mm 2 m/S 744 mmHg 77%
07:00 +18°C° 0 mm 2 m/S 744 mmHg 71%
08:00 +20°C° 0 mm 2 m/S 744 mmHg 66%
09:00 +22°C° 0 mm 3 m/S 744 mmHg 60%
10:00 +24°C° 0 mm 3 m/S 744 mmHg 56%
11:00 +25°C° 0 mm 4 m/S 743 mmHg 52%
12:00 +26°C° 0 mm 4 m/S 743 mmHg 47%
13:00 +27°C° 0 mm 4 m/S 743 mmHg 47%
14:00 +27°C° 0 mm 4 m/S 743 mmHg 46%
15:00 +28°C° 0 mm 5 m/S 742 mmHg 46%
16:00 +27°C° 0 mm 5 m/S 742 mmHg 51%
17:00 +26°C° 0 mm 5 m/S 742 mmHg 57%
18:00 +26°C° 0 mm 5 m/S 741 mmHg 63%
19:00 +23°C° 0 mm 4 m/S 741 mmHg 69%
20:00 +21°C° 0 mm 4 m/S 741 mmHg 76%
21:00 +20°C° 0 mm 4 m/S 741 mmHg 82%
22:00 +19°C° 0 mm 4 m/S 741 mmHg 82%
23:00 +18°C° 0 mm 4 m/S 740 mmHg 81%
Mehr zeigen

Wir brauchen deine Erlaubnis

Meteoprog und unser Service Anbieter werden persönliche Daten aufbewahren, so wie Cookies, Geräte Bezeichnung oder ähnliche Technologien von deinem Gerät und Prozess, so wie Persönliche Daten Inhalte und Werbungen, genauso wie social Media und den Verkehr zu analysieren.

  • Aufbewahrung und/oder Zugang zu deiner Geräte Informationen.

    Cookies, Geräte Bezeichnung oder andere Informationen, können aufbewahrt oder Zugang zu deinem Gerät erhalten, für den Grund, der oben angegeben wird.

  • Personalisierte Werbung und Inhalte, Messungen, Einblick in das Publikum und Produkt Entwicklung.

    Werbungen und Inhalte können personalisiert werden, basierend auf ein Profil. Mehr Daten können besser personalisierte Werbungen und Inhalte hinzufügen. Werbung und Inhalte können gezeigt und gemessen werden. Einblicke über das Publikum, welche die Werbung gesehen haben und den Inhalt, können abgeleitet werden. So wie Daten können genutzt werden, um es zu verbessern oder die Benutzer Erfahrung zu verbessern das System und die Software.

Wenn du “Ich stimme zu” klickst, erlaubst du uns, die Cookies zu benutzen die Geräte Bezeichnung, den Web oder ähnliche Technologien zu benutzen. Deine Settings, können in deinem Gerät bei deinem Browser geändert werden.

Für den bestimmten Zweck, berechtigten Interessen beruhen darauf, mehr als auf den Inhalt. Du kannst mehr darüber in unseren Privaten und Cookie Politik lesen.